Weather History for KPIA - October, 2013

Change the Weather History Date:

Saturday, October 5, 2013

  Actual Average Record
Temperature  
Mean Temperature 67 °F 58 °F  
Max Temperature 77 °F 69 °F 89 °F (1922)
Min Temperature 56 °F 47 °F 31 °F (1979)
Degree Days  
Heating Degree Days 0 8  
Month to date heating degree days 0 38  
Since 1 July heating degree days 32 128  
Cooling Degree Days 2 1  
Month to date cooling degree days 37 5  
Year to date cooling degree days 1171 1029  
Growing Degree Days 18 (Base 50)    
Moisture  
Dew Point 65 °F    
Average Humidity 81    
Maximum Humidity 97    
Minimum Humidity 64    
Precipitation  
Precipitation 0.02 in 0.09 in 1.62 in (1955)
Month to date precipitation 1.86 0.45  
Year to date precipitation 35.54 28.55  
Snow  
Snow 0.00 in 0.00 in T in (1932)
Month to date snowfall 0.0 0.0  
Since 1 July snowfall 0.0 0.0  
Since 1 September snowfall 0.0 0.0  
Snow Depth 0.00 in    
Sea Level Pressure  
Sea Level Pressure 29.87 in    
Wind  
Wind Speed 9 mph (SW)    
Max Wind Speed 18 mph    
Max Gust Speed 25 mph    
Visibility 9 miles    
Events Rain    
T = Trace of Precipitation, MM = Missing Value Source: NWS Daily Summary

Daily Weather History Graph

Daily Weather History Graph

Search for Another Location

Airport or City:

Trip Planner

Search our weather history database for the weather conditions in past years. The results will help you decide how hot, cold, wet, or windy it might be!

Date:

Astronomy

Oct. 05, 2013 Rise Set
Actual Time 6:59 AM CDT 6:33 PM CDT
Civil Twilight 6:32 AM CDT 7:01 PM CDT
Nautical Twilight 6:00 AM CDT 7:32 PM CDT
Astronomical Twilight 5:28 AM CDT 8:04 PM CDT
Moon 7:39 AM CDT (10/5) 6:52 PM CDT (10/5)
Length of Visible Light 12h 28m
Length of Day
11h 34m
New Moon, 1% of the Moon is Illuminated
Oct 5
New Moon
Oct 11
First Quarter
Oct 18
Full
Oct 26
Last Quarter
Nov 3
New

Hourly Weather History & Observations

Time (CDT) Temp. Dew Point Humidity Pressure Visibility Wind Dir Wind Speed Gust Speed Precip Events Conditions
12:54 AM 72.0 °F 66.9 °F 84% 29.92 in 10.0 mi South 6.9 mph - N/A   Clear
1:54 AM 71.1 °F 66.9 °F 87% 29.92 in 9.0 mi South 5.8 mph - N/A   Clear
2:54 AM 71.1 °F 66.9 °F 87% 29.90 in 9.0 mi South 8.1 mph - N/A   Clear
3:54 AM 70.0 °F 66.9 °F 90% 29.89 in 7.0 mi South 9.2 mph - N/A   Clear
4:54 AM 70.0 °F 68.0 °F 93% 29.89 in 6.0 mi South 6.9 mph - N/A   Clear
5:54 AM 70.0 °F 66.9 °F 90% 29.90 in 5.0 mi South 6.9 mph - N/A   Clear
6:54 AM 71.1 °F 68.0 °F 90% 29.89 in 6.0 mi South 5.8 mph - N/A   Overcast
7:54 AM 71.1 °F 68.0 °F 90% 29.90 in 6.0 mi South 5.8 mph - N/A   Mostly Cloudy
8:13 AM 72.0 °F 69.1 °F 91% 29.91 in 7.0 mi South 8.1 mph - N/A   Overcast
8:21 AM 71.1 °F 68.0 °F 90% 29.91 in 7.0 mi South 6.9 mph - N/A   Overcast
8:54 AM 72.0 °F 69.1 °F 91% 29.90 in 7.0 mi South 8.1 mph - N/A   Overcast
9:41 AM 73.0 °F 69.1 °F 87% 29.91 in 8.0 mi SSW 8.1 mph - N/A   Mostly Cloudy
9:49 AM 73.4 °F 69.8 °F 88% 29.92 in 8.0 mi SSW 10.4 mph - N/A   Overcast
9:54 AM 73.0 °F 69.1 °F 87% 29.91 in 8.0 mi SSW 11.5 mph - N/A   Overcast
10:06 AM 73.0 °F 69.1 °F 87% 29.91 in 8.0 mi South 8.1 mph - N/A   Overcast
10:33 AM 73.9 °F 69.1 °F 85% 29.92 in 9.0 mi SSW 8.1 mph - N/A   Overcast
10:54 AM 75.0 °F 70.0 °F 84% 29.90 in 10.0 mi SSW 6.9 mph - N/A   Overcast
11:21 AM 75.0 °F 69.1 °F 82% 29.91 in 10.0 mi SSW 8.1 mph - N/A   Mostly Cloudy
11:54 AM 75.9 °F 70.0 °F 82% 29.89 in 10.0 mi SW 9.2 mph - 0.00 in   Mostly Cloudy
12:54 PM 75.9 °F 68.0 °F 76% 29.89 in 10.0 mi SW 13.8 mph - 0.00 in   Mostly Cloudy
1:54 PM 73.9 °F 66.9 °F 79% 29.84 in 10.0 mi SW 6.9 mph - 0.00 in   Mostly Cloudy
2:54 PM 75.0 °F 64.0 °F 69% 29.83 in 10.0 mi SW 8.1 mph - N/A   Mostly Cloudy
3:54 PM 75.0 °F 63.0 °F 66% 29.83 in 10.0 mi SW 13.8 mph - N/A   Clear
4:54 PM 73.9 °F 64.0 °F 71% 29.81 in 10.0 mi SSW 9.2 mph - N/A   Scattered Clouds
5:54 PM 73.0 °F 64.0 °F 73% 29.81 in 10.0 mi SSW 15.0 mph - 0.00 in   Mostly Cloudy
6:54 PM 68.0 °F 63.0 °F 84% 29.82 in 10.0 mi WSW 13.8 mph - 0.00 in Rain Light Rain
7:17 PM 66.0 °F 62.1 °F 87% 29.84 in 10.0 mi West 12.7 mph - 0.00 in   Mostly Cloudy
7:34 PM 66.0 °F 61.0 °F 84% 29.84 in 10.0 mi WSW 11.5 mph - 0.00 in   Overcast
7:54 PM 64.9 °F 60.1 °F 84% 29.84 in 10.0 mi WSW 12.7 mph 23.0 mph 0.00 in   Overcast
8:36 PM 63.0 °F 57.9 °F 84% 29.85 in 10.0 mi WSW 11.5 mph - 0.00 in Rain Light Rain
8:54 PM 62.1 °F 55.9 °F 80% 29.84 in 10.0 mi WSW 11.5 mph - 0.00 in   Overcast
9:20 PM 62.1 °F 55.9 °F 80% 29.85 in 10.0 mi WSW 6.9 mph - N/A   Overcast
9:54 PM 60.1 °F 55.9 °F 86% 29.84 in 8.0 mi West 6.9 mph - 0.01 in Rain Light Rain
10:04 PM 60.1 °F 55.9 °F 86% 29.84 in 5.0 mi West 8.1 mph - 0.01 in Rain Light Rain
10:54 PM 59.0 °F 55.9 °F 90% 29.85 in 10.0 mi WSW 6.9 mph - 0.01 in Rain Light Rain
11:54 PM 57.9 °F 52.0 °F 81% 29.84 in 10.0 mi West 12.7 mph - 0.00 in   Overcast